STARLINK-11459 [DTC] (62464 NORAD) Tracking and Keplerian Element Data

This shows tracking and keplerian element data for the satellite.

Feedback or suggestion? Click here.




ElementValue
Catalog62464
NameSTARLINK-11459 [DTC]
Epoch Orbit670
Epoch Day35.22146689
Epoch Year2025
RAAN106.5087
Inclination42.9984
Eccentricity0.0001556
Argument of Perigee267.7206
Mean Anonmoly92.3486
Mean Motion15.77861705
Decay Rate2.656E-05
L11 62464U 24254C 25035.22146689 .00002656 00000+0 18118-4 0 9993
L22 62464 42.9984 106.5087 0001556 267.7206 92.3486 15.77861705 6706



Live tracking and technical data element details for STARLINK-11459 [DTC] (NORAD 62464). STARLINK-11459 [DTC] can be tracked NOW for your location showing map with azimuth and elevation plus other details from your city location.







IsCatalogInMostPopularTable: catalog: 62464, numindb: 20
Update: records affected: 1



GetName: 62464 STARLINK-11459 [DTC]

Hit Count: updated at: Sun, 18 May 2025 23:10:39 GMT